Regional Weather Roundup
Issued by NWS Green Bay, WI

Home | Current Version | Previous Version | Graphics & Text | Print | Product List | Glossary Off
Versions: 1 2 3 4 5 6 7 8 9 10 11 12 13 14 15 16 17 18 19 20 21 22 23 24 25 26 27 28 29 30 31 32 33 34 35 36 37 38 39 40 41 42 43 44 45 46 47 48 49 50

000
ASUS43 KGRB 200100
RWRGRB

NORTH-CENTRAL AND NORTHEAST WISCONSIN REGIONAL WEATHER ROUNDUP
NATIONAL WEATHER SERVICE GREEN BAY WI
700 PM CST MON FEB 19 2018

WIZ005-009-010>012-018-019-200200-
NORTH CENTRAL WISCONSIN

CITY           SKY/WX    TMP DP  RH WIND       PRES   REMARKS
IRONWOOD       LGT SNOW  15  12  88 NE9       30.00R FOG     WCI   3
MANITOWISH WTR NOT AVBL
ARBOR VITAE    NOT AVBL
EAGLE RIVER    CLOUDY    18  14  85 NE13G18   29.89F WCI   4
LAND O LAKES   CLOUDY    17  15  90 NE7       29.93F FOG     WCI   8
RHINELANDER    FRZ RAIN  19  17  92 NE10      29.88F FOG     WCI   7
PHILLIPS       CLOUDY    17  16  95 NE9       29.88S FOG     WCI   6
ANTIGO         NOT AVBL
TOMAHAWK       NOT AVBL
MERRILL        NOT AVBL
$$

WIZ013-073-200200-
NORTHEAST WISCONSIN

CITY           SKY/WX    TMP DP  RH WIND       PRES   REMARKS
IRON MOUNTAIN  CLOUDY    23  18  81 NE6       29.92S
MARINETTE      FLURRIES  28  26  92 NE14      29.93F
$$

WIZ017-030-035>037-045-200200-
CENTRAL WISCONSIN

CITY           SKY/WX    TMP DP  RH WIND       PRES   REMARKS
MEDFORD        NOT AVBL
WAUSAU         CLOUDY    25  22  88 E8G17     29.83S
MOSINEE        NOT AVBL
MARSHFIELD     FRZ RAIN  27  25  92 E15       29.80S FOG
WISC RAPIDS    CLOUDY    27  23  85 E15G21    29.84R FOG
STEVENS POINT  NOT AVBL
WAUPACA        CLOUDY    30  27  89 NE6       29.86S FOG
SHAWANO        CLOUDY    28  26  89 NE12G18   29.89F
CLINTONVILLE   CLOUDY    27  25  91 NE8G16    29.88S
WAUTOMA        CLOUDY    28  27  96 E14       29.83S
$$

WIZ038-039-048-051-200200-
FOX VALLEY

CITY           SKY/WX    TMP DP  RH WIND       PRES   REMARKS
NWS GREEN BAY  CLOUDY    28  25  88 NE23G31   29.89S FOG
APPLETON       CLOUDY    28  27  93 NE18G26   29.84S FOG
OSHKOSH        CLOUDY    29  28  96 NE10      29.84F FOG
FOND DU LAC    LGT RAIN  33  30  88 NE10      29.83F
$$

WIZ022-050-052-200200-
EAST CENTRAL WISCONSIN

CITY           SKY/WX    TMP DP  RH WIND       PRES   REMARKS
EPHRAIM        NOT AVBL
WASHINGTON ISL NOT AVBL
STURGEON BAY   CLOUDY    29  27  92 NE12      29.91F
MANITOWOC      LGT RAIN  33  32  96 NE12G17   29.86F FOG
SHEBOYGAN      LGT RAIN  34  34 100 NE18      29.83F FOG
$$

LMZ563-521-522-541>543-200200-
LAKESHORE

STATION/POSITION TIME  TEMP    WIND        PRES    VSBY  WAVE
                       AIR SEA DIR/SP/G                  HT/PER
                 (UTC) (F)     (DEG/KT/KT) (MB)    (MI)  (FT/S)
SHEBOYGAN LKSHOR 0000   35      20/ 16/ 18 1011.7R
KEWAUNEE LKSHORE 0030   33      30/ 16/ 22 1011.9R
NORTHPORT PIER   0043   28                 1014.6R
SISTER BAY LKSHO 0005   28      30/ 10/ 17   N/A
MENOMINEE LKSHOR 0030   28     360/ 21/ 24 1013.4F
$$




USA.gov is the U.S. government's official web portal to all federal, state and local government web resources and services.